Content
SEND FEEDBACK

Daily
Averages
Monthly
Summary
United States of America

GREENVILLE, KENTUCKY


Home > North America > United States > Kentucky
Elevation: 52 feet     Latitude: 37 12N     Longitude: 087 12W

WEATHER
 
SELECT A DAY
Number of Records: 60,373;   Date Range: 10/21/11 - 4/19/14
 
SHARE

PRINT THIS DATA

[ ← Previous Day ]
WEATHER ALMANAC - FEBRUARY 13, 2013
[ Next Day → ]
[ °C ]   °F
Weather ElementAverageHighLow
Temperature39.6 °F44.4 °F (3:35 pm)36.1 °F (9:35 am)
Dewpoint36.2 °F38.3 °F (3:35 pm)34.9 °F (1:15 pm)
Humidity88.2 %98 % (9:35 am)76 % (4:15 pm)
Barometer29.89 in29.96 in (9:55 pm)29.81 in (5:55 am)
Wind Speed7.5 mph16.1 mph (7:55 am)
Wind Gust19.6 mph (7:55 am)
Weather ElementAverage
Visibility8.8 mi
Wind DirectionSSW (190.4 °)

Weather ElementTotal
Precipitation0.13 in
Heating Degree Days24.8 (Base 65)
Averaged from 71 records on February 13, 2013
WEATHER CONDITIONS BREAKOUT
WIND DIRECTION BREAKOUT
WEATHER BY HOUR - FEBRUARY 13, 2013
[ °C ]   °F
Local TimeTemperatureDewpointHumidityBarometerVisibilityWind DirectionWind SpeedGust SpeedPrecipitationEventsConditions
12:35 AM42.8 °F36.1 °F77 %29.87 in10.0 miNE (50°)3.5 mphOvercast
12:55 AM41.5 °F37.6 °F86 %29.85 in10.0 miNorth (10°)10.4 mphOvercast
1:15 AM42.1 °F37.2 °F83 %29.85 in10.0 miNorth (360°)8.1 mphOvercast
1:35 AM42.1 °F36.9 °F82 %29.85 in10.0 miNorth (10°)4.6 mphOvercast
1:55 AM42.1 °F36.1 °F79 %29.84 in10.0 miNNE (20°)8.1 mphOvercast
2:15 AM42.3 °F35.8 °F78 %29.83 in10.0 miNNE (30°)8.1 mphOvercast
2:35 AM41.9 °F36.5 °F81 %29.83 in10.0 miNorth (10°)8.1 mphOvercast
2:55 AM41.9 °F36.1 °F80 %29.83 in10.0 miNNE (20°)4.6 mphOvercast
3:15 AM41.5 °F36.3 °F82 %29.82 in10.0 miNorth (10°)8.1 mphOvercast
3:35 AM41.4 °F36.1 °F82 %29.82 in10.0 miNorth (350°)9.2 mphRainLight Rain
3:55 AM41.0 °F36.1 °F83 %29.82 in10.0 miNorth (10°)8.1 mphRainLight Rain
4:15 AM40.8 °F36.5 °F85 %29.83 in7.0 miNE (50°)3.5 mphRainLight Rain
4:35 AM40.5 °F36.5 °F86 %29.83 in7.0 miNorth (10°)6.9 mph0.01 inRainLight Rain
4:55 AM40.5 °F36.7 °F86 %29.84 in10.0 miNorth (350°)5.8 mph0.01 inRainLight Rain
5:15 AM39.6 °F37.0 °F91 %29.83 in5.0 miNorth (350°)9.2 mph0.02 inRainLight Rain
5:35 AM39.4 °F37.6 °F93 %29.83 in5.0 miNorth (360°)9.2 mph0.02 inRainLight Rain
5:55 AM39.2 °F37.6 °F94 %29.81 in7.0 miNorth (10°)8.1 mph0.02 inRainLight Rain
6:15 AM39.2 °F36.7 °F91 %29.82 in7.0 miNNE (20°)9.2 mph0.01 inRainLight Rain
6:35 AM39.2 °F36.5 °F90 %29.83 in10.0 miNNE (20°)5.8 mph0.01 inRainRain
6:55 AM39.4 °F36.7 °F90 %29.84 in7.0 miNorth (360°)11.5 mph0.01 inRainRain
7:15 AM39.2 °F36.3 °F89 %29.85 in7.0 miNorth (10°)10.4 mphLight Drizzle
7:35 AM39.2 °F36.0 °F88 %29.86 in7.0 miNorth (360°)11.5 mphLight Drizzle
7:55 AM38.8 °F35.8 °F89 %29.87 in5.0 miNorth (10°)16.1 mph19.6 mphRainLight Rain
8:15 AM37.4 °F35.6 °F93 %29.87 in5.0 miNorth (10°)15.0 mphRainLight Rain
8:35 AM36.9 °F35.6 °F95 %29.88 in5.0 miNorth (10°)15.0 mphRainLight Rain
8:55 AM36.7 °F35.6 °F96 %29.88 in7.0 miNorth (10°)12.7 mphRainLight Rain
9:15 AM36.7 °F35.8 °F97 %29.89 in7.0 miNorth (360°)10.4 mphRainLight Rain
9:35 AM36.1 °F35.6 °F98 %29.90 in3.0 miNorth (360°)11.5 mph0.01 inOvercast
9:55 AM36.5 °F36.0 °F98 %29.90 in3.0 miNorth (360°)9.2 mph0.01 inRainLight Rain
10:15 AM37.0 °F36.5 °F98 %29.91 in5.0 miNorth (360°)8.1 mphRainLight Rain
10:35 AM36.7 °F36.0 °F97 %29.91 in7.0 miNorth (350°)10.4 mphRainLight Rain
10:55 AM37.0 °F36.1 °F97 %29.92 in5.0 miNorth (360°)12.7 mphRainRain
11:15 AM37.4 °F36.1 °F95 %29.93 in7.0 miNorth (350°)9.2 mphLight Drizzle
11:35 AM37.9 °F36.7 °F95 %29.93 in7.0 miNorth (350°)8.1 mphOvercast
11:55 AM38.3 °F36.7 °F94 %29.93 in10.0 miNorth (350°)5.8 mphOvercast
12:15 PM38.7 °F36.5 °F92 %29.92 in10.0 miNNW (340°)6.9 mphLight Drizzle
12:35 PM38.8 °F36.1 °F90 %29.91 in10.0 miNW (320°)4.6 mphLight Drizzle
12:55 PM39.6 °F36.0 °F87 %29.91 in10.0 miCalmOvercast
1:15 PM40.5 °F34.9 °F80 %29.90 in10.0 miCalmOvercast
1:35 PM41.0 °F35.8 °F82 %29.90 in10.0 miWest (280°)5.8 mphOvercast
1:55 PM41.5 °F37.0 °F84 %29.89 in10.0 miWSW (240°)4.6 mphOvercast
2:15 PM41.9 °F36.7 °F82 %29.89 in10.0 miSW (230°)4.6 mphOvercast
2:35 PM42.6 °F37.4 °F82 %29.89 in10.0 miWSW (250°)5.8 mphOvercast
2:55 PM43.2 °F37.8 °F81 %29.90 in10.0 miWest (260°)9.2 mphOvercast
3:15 PM43.0 °F37.0 °F80 %29.91 in10.0 miWSW (240°)11.5 mphOvercast
3:35 PM44.4 °F38.3 °F79 %29.90 in10.0 miSW (230°)8.1 mphOvercast
3:55 PM43.7 °F37.4 °F78 %29.90 in10.0 miWSW (250°)4.6 mphScattered Clouds
4:15 PM44.2 °F37.0 °F76 %29.91 in10.0 miWSW (240°)8.1 mphMostly Cloudy
4:35 PM43.2 °F37.0 °F79 %29.90 in10.0 miSSW (210°)5.8 mphMostly Cloudy
4:55 PM42.8 °F36.9 °F80 %29.90 in10.0 miSSW (200°)6.9 mphMostly Cloudy
5:15 PM42.1 °F36.7 °F81 %29.91 in10.0 miSouth (190°)4.6 mphMostly Cloudy
5:35 PM41.2 °F36.5 °F83 %29.91 in10.0 miSSW (200°)5.8 mphScattered Clouds
5:55 PM40.8 °F36.1 °F83 %29.92 in10.0 miSSW (200°)5.8 mphClear
6:15 PM39.9 °F36.0 °F86 %29.93 in10.0 miSSW (200°)4.6 mphClear
6:35 PM39.4 °F36.0 °F88 %29.93 in10.0 miSouth (190°)5.8 mphClear
6:55 PM38.3 °F35.6 °F90 %29.93 in10.0 miSouth (190°)5.8 mphClear
7:15 PM37.9 °F35.6 °F91 %29.93 in10.0 miSSW (200°)4.6 mphClear
7:35 PM37.9 °F35.4 °F91 %29.94 in10.0 miSSW (200°)4.6 mphClear
7:55 PM38.1 °F35.4 °F90 %29.93 in10.0 miSouth (190°)5.8 mphClear
8:15 PM37.2 °F35.1 °F92 %29.94 in10.0 miSSW (200°)6.9 mphClear
8:35 PM37.0 °F35.1 °F93 %29.95 in10.0 miSSW (200°)5.8 mphClear
8:55 PM37.4 °F35.2 °F92 %29.95 in10.0 miSSW (200°)5.8 mphClear
9:15 PM36.9 °F34.9 °F93 %29.95 in10.0 miSSW (210°)6.9 mphClear
9:35 PM37.0 °F35.1 °F93 %29.95 in10.0 miSSW (210°)6.9 mphClear
9:55 PM37.0 °F35.1 °F93 %29.96 in10.0 miSSW (210°)8.1 mphClear
10:15 PM37.2 °F35.2 °F93 %29.96 in10.0 miSSW (200°)8.1 mphClear
10:35 PM37.2 °F35.6 °F94 %29.96 in10.0 miSSW (200°)6.9 mphClear
10:55 PM37.0 °F35.6 °F95 %29.96 in10.0 miSSW (200°)6.9 mphClear
11:15 PM36.3 °F35.2 °F96 %29.96 in10.0 miSSW (200°)5.8 mphClear
11:35 PM36.7 °F35.6 °F96 %29.96 in10.0 miSSW (210°)8.1 mphClear
11:55 PM36.9 °F35.8 °F96 %29.96 in10.0 miSSW (210°)8.1 mphClear
Hourly data recorded from K2I0, located 15.10 miles away from Greenville, Kentucky







STORIES FROM OUR PARTNERS